Time,TemperatureF,DewpointF,PressureIn,WindDirection,WindDirectionDegrees,WindSpeedMPH,WindSpeedGustMPH,Humidity,HourlyPrecipIn,Conditions,Clouds,dailyrainin,SoftwareType,DateUTC
2013-08-09 00:00:00,52.0,49.0,-100.00,NNW,334,1.0,-999.0,90,0.00,,,-99.99,,2013-08-09 07:00:00,
2013-08-09 00:33:00,52.0,49.0,-100.00,NNW,334,1.0,-999.0,90,0.00,,,-99.99,,2013-08-09 07:33:00,
2013-08-09 00:53:00,52.0,49.0,-100.00,NNW,334,1.0,-999.0,90,0.00,,,-99.99,,2013-08-09 07:53:00,
2013-08-09 01:00:00,51.0,48.0,-100.00,NNW,346,5.0,-999.0,90,0.00,,,-99.99,,2013-08-09 08:00:00,
2013-08-09 01:32:00,51.0,48.0,-100.00,NNW,346,5.0,-999.0,90,0.00,,,-99.99,,2013-08-09 08:32:00,
2013-08-09 01:53:00,51.0,48.0,-100.00,NNW,346,5.0,-999.0,90,0.00,,,-99.99,,2013-08-09 08:53:00,
2013-08-09 02:00:00,50.0,48.0,-100.00,NW,308,1.0,-999.0,92,0.00,,,-99.99,,2013-08-09 09:00:00,
2013-08-09 02:32:00,50.0,48.0,-100.00,NW,308,1.0,-999.0,92,0.00,,,-99.99,,2013-08-09 09:32:00,
2013-08-09 02:52:00,50.0,48.0,-100.00,NW,308,1.0,-999.0,92,0.00,,,-99.99,,2013-08-09 09:52:00,
2013-08-09 03:00:00,50.0,48.0,-100.00,ENE,74,0.0,-999.0,92,0.00,,,-99.99,,2013-08-09 10:00:00,
2013-08-09 03:32:00,50.0,48.0,-100.00,ENE,74,0.0,-999.0,92,0.00,,,-99.99,,2013-08-09 10:32:00,
2013-08-09 03:53:00,50.0,48.0,-100.00,ENE,74,0.0,-999.0,92,0.00,,,-99.99,,2013-08-09 10:53:00,
2013-08-09 04:00:00,49.0,47.0,-100.00,South,174,1.0,-999.0,93,0.00,,,-99.99,,2013-08-09 11:00:00,
2013-08-09 04:33:00,49.0,47.0,-100.00,South,174,1.0,-999.0,93,0.00,,,-99.99,,2013-08-09 11:33:00,
2013-08-09 04:53:00,49.0,47.0,-100.00,South,174,1.0,-999.0,93,0.00,,,-99.99,,2013-08-09 11:53:00,
2013-08-09 05:32:00,48.0,46.0,-100.00,NNW,346,4.0,-999.0,93,0.00,,,-99.99,,2013-08-09 12:32:00,
2013-08-09 05:52:00,48.0,46.0,-100.00,NNW,346,4.0,-999.0,93,0.00,,,-99.99,,2013-08-09 12:52:00,
2013-08-09 06:00:00,47.0,46.0,-100.00,South,178,2.0,-999.0,93,0.00,,,-99.99,,2013-08-09 13:00:00,
2013-08-09 06:32:00,47.0,46.0,-100.00,South,178,2.0,-999.0,93,0.00,,,-99.99,,2013-08-09 13:32:00,
2013-08-09 06:52:00,47.0,46.0,-100.00,South,178,2.0,-999.0,93,0.00,,,-99.99,,2013-08-09 13:52:00,
2013-08-09 07:00:00,49.0,47.0,-100.00,WNW,302,5.0,-999.0,94,0.00,,,-99.99,,2013-08-09 14:00:00,
2013-08-09 07:33:00,49.0,47.0,-100.00,WNW,302,5.0,-999.0,94,0.00,,,-99.99,,2013-08-09 14:33:00,
2013-08-09 07:53:00,49.0,47.0,-100.00,WNW,302,5.0,-999.0,94,0.00,,,-99.99,,2013-08-09 14:53:00,
2013-08-09 08:00:00,49.0,47.0,-100.00,NW,318,4.0,-999.0,94,0.00,,,-99.99,,2013-08-09 15:00:00,
2013-08-09 08:33:00,49.0,47.0,-100.00,NW,318,4.0,-999.0,94,0.00,,,-99.99,,2013-08-09 15:33:00,
2013-08-09 08:53:00,49.0,47.0,-100.00,NW,318,4.0,-999.0,94,0.00,,,-99.99,,2013-08-09 15:53:00,
2013-08-09 09:00:00,51.0,49.0,-100.00,SSW,208,4.0,-999.0,93,0.00,,,-99.99,,2013-08-09 16:00:00,
2013-08-09 09:32:00,51.0,49.0,-100.00,SSW,208,4.0,-999.0,93,0.00,,,-99.99,,2013-08-09 16:32:00,
2013-08-09 09:53:00,51.0,49.0,-100.00,SSW,208,4.0,-999.0,93,0.00,,,-99.99,,2013-08-09 16:53:00,
2013-08-09 10:00:00,57.0,51.0,-100.00,SSW,192,2.0,-999.0,79,0.00,,,-99.99,,2013-08-09 17:00:00,
2013-08-09 10:33:00,57.0,51.0,-100.00,SSW,192,2.0,-999.0,79,0.00,,,-99.99,,2013-08-09 17:33:00,
2013-08-09 10:43:00,57.0,51.0,-100.00,SSW,192,2.0,-999.0,79,0.00,,,-99.99,,2013-08-09 17:43:00,
2013-08-09 10:52:00,57.0,51.0,-100.00,SSW,192,2.0,-999.0,79,0.00,,,-99.99,,2013-08-09 17:52:00,
2013-08-09 11:00:00,63.0,52.0,-100.00,NNW,339,2.0,-999.0,65,0.00,,,-99.99,,2013-08-09 18:00:00,
2013-08-09 11:32:00,63.0,52.0,-100.00,NNW,339,2.0,-999.0,65,0.00,,,-99.99,,2013-08-09 18:32:00,
2013-08-09 11:43:00,63.0,52.0,-100.00,NNW,339,2.0,-999.0,65,0.00,,,-99.99,,2013-08-09 18:43:00,
2013-08-09 11:53:00,63.0,52.0,-100.00,NNW,339,2.0,-999.0,65,0.00,,,-99.99,,2013-08-09 18:53:00,
2013-08-09 12:00:00,67.0,52.0,-100.00,NNW,328,5.0,-999.0,57,0.00,,,-99.99,,2013-08-09 19:00:00,
2013-08-09 12:32:00,67.0,52.0,-100.00,NNW,328,5.0,-999.0,57,0.00,,,-99.99,,2013-08-09 19:32:00,
2013-08-09 12:43:00,67.0,52.0,-100.00,NNW,328,5.0,-999.0,57,0.00,,,-99.99,,2013-08-09 19:43:00,
2013-08-09 12:52:00,67.0,52.0,-100.00,NNW,328,5.0,-999.0,57,0.00,,,-99.99,,2013-08-09 19:52:00,
2013-08-09 15:00:00,69.0,51.0,-100.00,NNW,327,3.0,-999.0,52,0.00,,,-99.99,,2013-08-09 22:00:00,
2013-08-09 15:32:00,69.0,51.0,-100.00,NNW,327,3.0,-999.0,52,0.00,,,-99.99,,2013-08-09 22:32:00,
2013-08-09 15:42:00,69.0,51.0,-100.00,NNW,327,3.0,-999.0,52,0.00,,,-99.99,,2013-08-09 22:42:00,
2013-08-09 15:52:00,69.0,51.0,-100.00,NNW,327,3.0,-999.0,52,0.00,,,-99.99,,2013-08-09 22:52:00,
2013-08-09 16:00:00,72.0,52.0,-100.00,SE,139,4.0,-999.0,48,0.00,,,-99.99,,2013-08-09 23:00:00,
2013-08-09 16:43:00,72.0,52.0,-100.00,SE,139,4.0,-999.0,48,0.00,,,-99.99,,2013-08-09 23:43:00,
2013-08-09 16:52:00,72.0,52.0,-100.00,SE,139,4.0,-999.0,48,0.00,,,-99.99,,2013-08-09 23:52:00,
2013-08-09 17:00:00,67.0,51.0,-100.00,WNW,297,1.0,-999.0,57,0.00,,,-99.99,,2013-08-10 00:00:00,
2013-08-09 17:33:00,67.0,51.0,-100.00,WNW,297,1.0,-999.0,57,0.00,,,-99.99,,2013-08-10 00:33:00,
2013-08-09 17:43:00,67.0,51.0,-100.00,WNW,297,1.0,-999.0,57,0.00,,,-99.99,,2013-08-10 00:43:00,
2013-08-09 17:52:00,67.0,51.0,-100.00,WNW,297,1.0,-999.0,57,0.00,,,-99.99,,2013-08-10 00:52:00,
2013-08-09 18:00:00,65.0,51.0,-100.00,NW,309,2.0,-999.0,61,0.00,,,-99.99,,2013-08-10 01:00:00,
2013-08-09 18:32:00,65.0,51.0,-100.00,NW,309,2.0,-999.0,61,0.00,,,-99.99,,2013-08-10 01:32:00,
2013-08-09 18:42:00,65.0,51.0,-100.00,NW,309,2.0,-999.0,61,0.00,,,-99.99,,2013-08-10 01:42:00,
2013-08-09 18:52:00,65.0,51.0,-100.00,NW,309,2.0,-999.0,61,0.00,,,-99.99,,2013-08-10 01:52:00,
2013-08-09 19:00:00,61.0,52.0,-100.00,NW,309,4.0,-999.0,71,0.00,,,-99.99,,2013-08-10 02:00:00,
2013-08-09 19:21:00,61.0,52.0,-100.00,NW,309,4.0,-999.0,71,0.00,,,-99.99,,2013-08-10 02:21:00,
2013-08-09 19:32:00,61.0,52.0,-100.00,NW,309,4.0,-999.0,71,0.00,,,-99.99,,2013-08-10 02:32:00,
2013-08-09 19:42:00,61.0,52.0,-100.00,NW,309,4.0,-999.0,71,0.00,,,-99.99,,2013-08-10 02:42:00,
2013-08-09 19:52:00,61.0,52.0,-100.00,NW,309,4.0,-999.0,71,0.00,,,-99.99,,2013-08-10 02:52:00,
2013-08-09 20:00:00,56.0,51.0,-100.00,NW,323,1.0,-999.0,80,0.00,,,-99.99,,2013-08-10 03:00:00,
2013-08-09 20:22:00,56.0,51.0,-100.00,NW,323,1.0,-999.0,80,0.00,,,-99.99,,2013-08-10 03:22:00,
2013-08-09 20:32:00,56.0,51.0,-100.00,NW,323,1.0,-999.0,80,0.00,,,-99.99,,2013-08-10 03:32:00,
2013-08-09 20:52:00,56.0,51.0,-100.00,NW,323,1.0,-999.0,80,0.00,,,-99.99,,2013-08-10 03:52:00,
2013-08-09 21:00:00,55.0,51.0,-100.00,NW,326,2.0,-999.0,86,0.00,,,-99.99,,2013-08-10 04:00:00,
2013-08-09 21:32:00,55.0,51.0,-100.00,NW,326,2.0,-999.0,86,0.00,,,-99.99,,2013-08-10 04:32:00,
2013-08-09 21:53:00,55.0,51.0,-100.00,NW,326,2.0,-999.0,86,0.00,,,-99.99,,2013-08-10 04:53:00,
2013-08-09 22:00:00,55.0,51.0,-100.00,NNW,337,0.0,-999.0,86,0.00,,,-99.99,,2013-08-10 05:00:00,
2013-08-09 22:32:00,55.0,51.0,-100.00,NNW,337,0.0,-999.0,86,0.00,,,-99.99,,2013-08-10 05:32:00,
2013-08-09 22:52:00,55.0,51.0,-100.00,NNW,337,0.0,-999.0,86,0.00,,,-99.99,,2013-08-10 05:52:00,
2013-08-09 23:00:00,55.0,51.0,-100.00,NW,325,2.0,-999.0,86,0.00,,,-99.99,,2013-08-10 06:00:00,
2013-08-09 23:53:00,55.0,51.0,-100.00,NW,325,2.0,-999.0,86,0.00,,,-99.99,,2013-08-10 06:53:00,